EW3302 Weather Reports


Display with metric or nautical units.
time (UTC)temp
F
wind
direction
speed
MPH
gust
MPH
rain 1hr
in
rain 24hr
in
rain mn
in
humidity
%
barometer
mb
20260508021516 28 0.0 1.0 0.00 0.00 0.00 84 1022.1
20260508020556 29 0.0 1.0 0.00 0.00 0.00 84 1022.0
20260508015516 29 0.0 0.0 0.00 0.00 0.00 83 1021.9
20260508014515 29 0.0 1.0 0.00 0.00 0.00 83 1021.8
20260508013516 29 0.0 0.0 0.00 0.00 0.00 83 1021.7
20260508012536 29 0.0 1.0 0.00 0.00 0.00 82 1021.6
20260508011536 29 0.0 0.0 0.00 0.00 0.00 82 1021.4
20260508010516 30 0.0 0.0 0.00 0.00 0.00 81 1021.4
20260508005516 30 0.0 1.0 0.00 0.00 0.00 80 1021.3
20260508004516 30 0.0 0.0 0.00 0.00 0.00 80 1021.2
20260508003515 30 338 1.0 1.0 0.00 0.00 0.00 80 1021.1
20260508002516 30 0.0 0.0 0.00 0.00 0.00 79 1021.2
20260508001516 31 0.0 1.0 0.00 0.00 0.00 78 1021.0
20260508000516 31 0.0 1.0 0.00 0.00 0.00 78 1020.9
20260507235515 31 0.0 0.0 0.00 0.00 0.00 77 1020.8
20260507234516 31 0.0 0.0 0.00 0.00 0.00 76 1020.8
20260507233555 32 0.0 0.0 0.00 0.00 0.00 75 1020.7
20260507232515 32 338 1.0 1.0 0.00 0.00 0.00 75 1020.6
20260507231536 32 338 1.0 2.0 0.00 0.00 0.00 74 1020.5
20260507230516 33 0.0 1.0 0.00 0.00 0.00 73 1020.4
20260507225516 33 338 1.0 2.0 0.00 0.00 0.00 72 1020.4
20260507224535 33 0.0 0.0 0.00 0.00 0.00 71 1020.3
20260507223515 34 338 1.0 2.0 0.00 0.00 0.00 70 1020.2
20260507222516 34 0.0 2.0 0.00 0.00 0.00 69 1020.1
20260507221536 34 45 1.0 2.0 0.00 0.00 0.00 68 1020.1
20260507220515 35 0.0 1.0 0.00 0.00 0.00 66 1019.9
20260507215517 35 45 1.0 2.0 0.00 0.00 0.00 65 1019.9
20260507214517 36 0.0 1.0 0.00 0.00 0.00 64 1019.8
20260507213517 37 0.0 1.0 0.00 0.00 0.00 62 1019.9
20260507212517 37 0.0 1.0 0.00 0.00 0.00 61 1019.6
20260507211517 37 0.0 1.0 0.00 0.00 0.00 59 1019.4
20260507210517 38 0.0 1.0 0.00 0.00 0.00 58 1019.3
20260507205517 38 0.0 2.0 0.00 0.00 0.00 56 1019.1
20260507204517 38 90 1.0 3.0 0.00 0.00 0.00 55 1019.0
20260507203517 39 23 1.0 2.0 0.00 0.00 0.00 56 1018.9
20260507202517 40 0 3.0 6.0 0.00 0.00 0.00 56 1018.9
20260507201517 40 0 1.0 3.0 0.00 0.00 0.00 53 1018.5
20260507200517 41 0.0 1.0 0.00 0.00 0.00 50 1018.5
20260507195517 42 0 1.0 2.0 0.00 0.00 0.00 49 1018.4
20260507194517 43 0.0 2.0 0.00 0.00 0.00 45 1018.3
20260507193517 44 0.0 1.0 0.00 0.00 0.00 39 1018.1
20260507192517 46 0 1.0 2.0 0.00 0.00 0.00 36 1018.0
20260507191537 47 0 1.0 3.0 0.00 0.00 0.00 33 1017.9
20260507190517 49 0.0 1.0 0.00 0.00 0.00 30 1017.7
20260507185517 50 23 1.0 3.0 0.00 0.00 0.00 29 1017.6
20260507184517 51 23 1.0 3.0 0.00 0.00 0.00 28 1017.6
20260507183517 52 23 2.0 4.0 0.00 0.00 0.00 27 1017.5
20260507182517 53 45 2.0 4.0 0.00 0.00 0.00 24 1017.4
20260507181517 54 45 1.0 4.0 0.00 0.00 0.00 23 1017.3
20260507180517 54 45 2.0 4.0 0.00 0.00 0.00 24 1017.2
20260507175517 55 45 3.0 6.0 0.00 0.00 0.00 23 1017.0
20260507174517 55 23 3.0 5.0 0.00 0.00 0.00 23 1016.9
20260507173517 56 23 2.0 4.0 0.00 0.00 0.00 21 1016.8
20260507172517 57 23 3.0 5.0 0.00 0.00 0.00 19 1016.7
20260507171537 57 0 2.0 4.0 0.00 0.00 0.00 21 1016.6
20260507170537 57 23 4.0 7.0 0.00 0.00 0.00 21 1016.6
20260507165517 58 23 4.0 7.0 0.00 0.00 0.00 22 1016.4
20260507164517 58 338 2.0 5.0 0.00 0.00 0.00 20 1016.3
20260507163517 57 315 2.0 6.0 0.00 0.00 0.00 21 1016.3
20260507162517 57 315 4.0 6.0 0.00 0.00 0.00 22 1016.3
20260507161517 57 0 5.0 9.0 0.00 0.00 0.00 23 1016.2
20260507160517 57 315 2.0 6.0 0.00 0.00 0.00 23 1016.0
20260507155537 57 315 3.0 7.0 0.00 0.00 0.00 22 1016.0
20260507154517 57 23 1.0 2.0 0.00 0.00 0.00 21 1016.0
20260507153537 57 338 4.0 8.0 0.00 0.00 0.00 22 1016.0
20260507152517 57 338 6.0 10.0 0.00 0.00 0.00 22 1015.9
20260507151517 57 45 5.0 9.0 0.00 0.00 0.00 23 1015.8
20260507150517 57 0 5.0 8.0 0.00 0.00 0.00 25 1015.8
20260507145517 57 0 3.0 6.0 0.00 0.00 0.00 23 1015.8
20260507144537 57 338 5.0 8.0 0.00 0.00 0.00 24 1015.8
20260507143517 56 0 5.0 9.0 0.00 0.00 0.00 24 1015.6
20260507142517 55 23 3.0 7.0 0.00 0.00 0.00 26 1015.6
20260507141516 55 45 2.0 5.0 0.00 0.00 0.00 25 1015.6
20260507140516 56 45 5.0 10.0 0.00 0.00 0.00 24 1015.6
20260507135517 57 248 3.0 7.0 0.00 0.00 0.00 24 1015.5
20260507134517 57 113 6.0 10.0 0.00 0.00 0.00 25 1015.5
20260507133517 57 0 3.0 8.0 0.00 0.00 0.00 26 1015.5
20260507132516 56 0 3.0 6.0 0.00 0.00 0.00 25 1015.5
20260507131537 56 23 3.0 8.0 0.00 0.00 0.00 25 1015.4
20260507130536 57 23 5.0 10.0 0.00 0.00 0.00 26 1015.5
20260507125537 56 0 4.0 7.0 0.00 0.00 0.00 28 1015.3
20260507124517 54 45 2.0 5.0 0.00 0.00 0.00 27 1015.3
20260507123516 54 68 2.0 5.0 0.00 0.00 0.00 29 1015.2
20260507122517 55 0 4.0 7.0 0.00 0.00 0.00 25 1015.2
20260507121516 57 0 6.0 11.0 0.00 0.00 0.00 26 1015.2
20260507120517 57 0 5.0 10.0 0.00 0.00 0.00 28 1015.2
20260507115517 56 23 3.0 7.0 0.00 0.00 0.00 29 1015.2
20260507114557 55 0 5.0 9.0 0.00 0.00 0.00 32 1015.2
20260507113516 54 270 1.0 2.0 0.00 0.00 0.00 26 1015.1
20260507112536 54 315 3.0 8.0 0.00 0.00 0.00 28 1015.2
20260507111517 55 338 4.0 8.0 0.00 0.00 0.00 25 1015.2
20260507110537 56 248 4.0 10.0 0.00 0.00 0.00 28 1015.1
20260507105516 55 270 5.0 10.0 0.00 0.00 0.00 26 1015.1
20260507104516 54 270 2.0 5.0 0.00 0.00 0.00 29 1015.0
20260507103516 55 0 5.0 9.0 0.00 0.00 0.00 28 1015.0
20260507102536 54 45 2.0 3.0 0.00 0.00 0.00 31 1014.9
20260507101517 54 270 5.0 9.0 0.00 0.00 0.00 28 1014.9
20260507100517 55 270 4.0 9.0 0.00 0.00 0.00 29 1014.8
20260507095516 54 248 3.0 6.0 0.00 0.00 0.00 32 1014.7
20260507094537 54 315 3.0 7.0 0.00 0.00 0.00 36 1014.7
20260507093516 54 270 3.0 8.0 0.00 0.00 0.00 34 1014.7
20260507092516 53 180 3.0 7.0 0.00 0.00 0.00 40 1014.6
20260507091517 53 23 2.0 5.0 0.00 0.00 0.00 36 1014.6
20260507090517 53 293 3.0 7.0 0.00 0.00 0.00 39 1014.6
20260507085516 52 0 2.0 5.0 0.00 0.00 0.00 44 1014.6
20260507084517 51 0 1.0 4.0 0.00 0.00 0.00 46 1014.6
20260507083536 51 338 3.0 5.0 0.00 0.00 0.00 50 1014.7
20260507082536 50 315 2.0 4.0 0.00 0.00 0.00 52 1014.5
20260507081517 50 338 3.0 8.0 0.00 0.00 0.00 50 1014.5
20260507080516 49 270 2.0 5.0 0.00 0.00 0.00 53 1014.4
20260507075516 49 270 2.0 4.0 0.00 0.00 0.00 54 1014.4
20260507074517 48 248 2.0 4.0 0.00 0.00 0.00 52 1014.4
20260507073517 48 338 1.0 4.0 0.00 0.00 0.00 52 1014.4
20260507072516 48 248 2.0 4.0 0.00 0.00 0.00 52 1014.4
20260507071517 48 293 2.0 4.0 0.00 0.00 0.00 51 1014.3
20260507070516 48 315 2.0 5.0 0.00 0.00 0.00 54 1014.2
20260507065537 47 293 2.0 6.0 0.00 0.00 0.00 55 1014.3
20260507064517 47 293 2.0 4.0 0.00 0.00 0.00 56 1014.2
20260507063516 46 315 2.0 4.0 0.00 0.00 0.00 58 1014.1
20260507062556 45 338 1.0 3.0 0.00 0.00 0.00 57 1014.1
20260507061516 44 270 1.0 3.0 0.00 0.00 0.00 58 1013.9
20260507060516 42 270 2.0 3.0 0.00 0.00 0.00 64 1013.8
20260507055517 41 338 3.0 5.0 0.00 0.00 0.00 65 1013.7
20260507054517 41 315 2.0 4.0 0.00 0.00 0.00 66 1013.7
20260507053516 40 293 1.0 3.0 0.00 0.00 0.00 69 1013.6
20260507052516 39 315 3.0 5.0 0.00 0.00 0.00 69 1013.6
20260507051517 39 293 3.0 6.0 0.00 0.00 0.00 70 1013.5
20260507050516 38 338 2.0 6.0 0.00 0.00 0.00 70 1013.5
20260507045516 38 293 2.0 6.0 0.00 0.00 0.00 71 1013.4
20260507044516 37 315 3.0 7.0 0.00 0.00 0.00 73 1013.3
20260507043516 36 293 2.0 4.0 0.00 0.00 0.00 74 1013.2
20260507042516 36 315 2.0 6.0 0.00 0.00 0.00 75 1013.3
20260507041516 36 293 2.0 5.0 0.00 0.00 0.00 77 1013.2
20260507040516 35 293 2.0 4.0 0.00 0.00 0.00 79 1013.1
20260507035516 34 293 2.0 3.0 0.00 0.00 0.00 81 1013.1
20260507034516 34 293 2.0 3.0 0.00 0.00 0.00 80 1012.9
20260507033516 34 293 1.0 3.0 0.00 0.00 0.00 79 1012.9
20260507032516 34 0.0 2.0 0.00 0.00 0.00 79 1012.8
20260507031516 34 293 1.0 2.0 0.00 0.00 0.00 78 1012.7
20260507030516 34 0.0 0.0 0.00 0.00 0.00 77 1012.6
20260507025516 34 293 1.0 1.0 0.00 0.00 0.00 77 1012.7
20260507024536 34 293 1.0 3.0 0.00 0.00 0.00 77 1012.6
20260507023516 35 293 1.0 3.0 0.00 0.00 0.00 76 1012.5
20260507022516 35 293 1.0 2.0 0.00 0.00 0.00 74 1012.6